Flag for Germany Weather past 2 weeks in Rastatt, Baden-Württemberg, Germany

Now
52 °F

Rain. Passing clouds.


Feels Like: 47 °F
Forecast: 45 / 55 °F
Wind: 16 mph from Southwest

Location: Karlsruhe - Baden Wurttemberg

Current Time: Mar 30, 2015 at 2:17:59 AM

Latest Report: Mar 29, 2015 at 11:50 PM


Visibility: 6 mi

Pressure: 29.59 "Hg

Humidity: 82%

Dew point: 46 °F

Location of RastattLocation

Historic Weather in Rastatt — Graph

°F

Rastatt temperature yesterday

Maximum temperature yesterday: 52 °F (at 4:50 AM)
Minimum temperature yesterday: 50 °F (at 7:20 AM)
Average temperature yesterday: 51 °F

Past Weeks' High & Low Weather Summary

 TemperatureHumidityPressure
High64 °F (Mar 18, 2:50 PM)100% (Mar 18, 7:50 AM)30.27 "Hg (Mar 18, 7:50 AM)
Low30 °F (Mar 24, 5:20 AM)34% (Mar 18, 2:50 PM)29.59 "Hg (Mar 29, 9:20 PM)
Average47 °F66%30.03 "Hg
* Reported Mar 14 10:20 PM — Mar 29 11:50 PM, Rastatt, Weather by CustomWeather, © 2015

Note: Actual official high and low records may vary slightly from our data, if they occured in-between our weather recording intervals... More about our weather records

Advertising

Rastatt weather history for previous 24 hours

 ConditionsComfort  
Time TempWeatherWind HumidityBarometerVisibility
11:50 PM
Sun, Mar 29
52 °FRain. Passing clouds.16 mph82%29.59 "Hg6 mi
11:20 PM52 °FLight rain. Passing clouds.16 mph77%29.59 "HgN/A
10:50 PM52 °FRain. Passing clouds.21 mph82%29.59 "Hg6 mi
10:20 PM52 °FLight rain. Passing clouds.24 mph82%29.59 "HgN/A
9:50 PM52 °FRain. Passing clouds.24 mph82%29.59 "HgN/A
9:20 PM52 °FRain. Passing clouds.25 mph82%29.59 "HgN/A
8:50 PM52 °FRain. Partly sunny.22 mph82%29.62 "Hg5 mi
8:20 PM52 °FRain. Partly sunny.20 mph82%29.62 "Hg5 mi
7:50 PM52 °FRain. Broken clouds.20 mph82%29.62 "Hg5 mi
7:20 PM52 °FRain. Partly sunny.20 mph82%29.65 "Hg4 mi
6:50 PM52 °FRain. Partly sunny.21 mph82%29.65 "Hg4 mi
6:20 PM52 °FRain. Partly sunny.26 mph77%29.65 "Hg4 mi
5:50 PM52 °FRain. Broken clouds.24 mph77%29.65 "Hg5 mi
5:20 PM52 °FLight rain. Broken clouds.26 mph77%29.65 "HgN/A
4:50 PM52 °FLight rain. Partly sunny.24 mph77%29.68 "HgN/A
4:20 PM52 °FLight rain. Partly sunny.25 mph82%29.68 "HgN/A
3:50 PM52 °FRain. Partly sunny.24 mph82%29.71 "Hg6 mi
3:20 PM52 °FRain. Partly sunny.20 mph82%29.74 "Hg4 mi
2:50 PM50 °FLight rain. Partly sunny.18 mph88%29.77 "Hg6 mi
2:20 PM50 °FRain. Partly sunny.20 mph82%29.80 "Hg5 mi
1:50 PM50 °FRain. Partly sunny.18 mph82%29.80 "Hg5 mi
1:20 PM52 °FRain. Partly sunny.16 mph77%29.80 "Hg5 mi
12:50 PM52 °FRain. Partly sunny.13 mph77%29.83 "Hg5 mi
12:20 PM52 °FRain. Partly sunny.15 mph77%29.83 "Hg5 mi
11:50 AM50 °FRain. Partly sunny.13 mph82%29.86 "Hg5 mi
11:20 AM52 °FRain. Partly sunny.14 mph82%29.86 "Hg5 mi
10:50 AM50 °FRain. Partly sunny.14 mph88%29.86 "Hg5 mi
10:20 AM50 °FRain. Partly sunny.16 mph88%29.86 "Hg4 mi
9:50 AM50 °FRain. Broken clouds.14 mph88%29.89 "Hg3 mi
9:20 AM50 °FSprinkles. Broken clouds.13 mph88%29.89 "Hg4 mi
8:50 AM50 °FSprinkles. Partly sunny.20 mph82%29.89 "Hg4 mi
8:20 AM50 °FSprinkles. Partly sunny.15 mph82%29.89 "Hg6 mi
7:50 AM50 °FSprinkles. Passing clouds.15 mph82%29.89 "Hg4 mi
7:20 AM50 °FPassing clouds.17 mph82%29.89 "HgN/A
6:50 AM52 °FPassing clouds.16 mph77%29.89 "HgN/A
6:20 AM52 °FPassing clouds.16 mph77%29.89 "HgN/A
5:50 AM52 °FPassing clouds.17 mph77%29.92 "HgN/A
5:20 AM52 °FPassing clouds.18 mph77%29.92 "HgN/A
4:50 AM52 °FPassing clouds.21 mph77%29.92 "HgN/A
Weather by CustomWeather, © 2015

See weather overviewHow to use our weather pages